sat.trackr.live / text

‹ back to catalog

ONEWEB-0035

NORAD 45143 · 2020-008N

PAYLOAD ACTIVE UNKNOWN

§ Identity

Operator
Country
UK
Launch date
2020-02-06
Launch site
TYMSC
Launch vehicle
Mass (kg)
RCS (m²)

Purposes: comms

External: N2YO · Heavens-Above · Gunter

§ Orbital elements

Epoch: 2026-05-25T03:58:36.179328Z

Period
109.88 min
Inclination
87.8825°
Eccentricity
0.0000470
Mean motion
13.10487688 rev/d
Perigee alt
1,220.9 km
Apogee alt
1,221.6 km
Semi-major
7,599.4 km
B*
-4.5037e-2
RAAN
40.8532°
Arg perigee
97.3143°
Mean anomaly
262.8037°
Rev number
30,492

§ Raw data

ONEWEB-00351 45143U 20008N   26145.16569652 -.00015708  00000+0 -45037-1 0  99972 45143  87.8825  40.8532 0000470  97.3143 262.8037 13.10487688304929

JSON: /api/v1/satellites/45143 · /tle

For live sub-satellite position, see the globe view (requires WebGL).

§ Visibility from observer

Set your observer location to see the next 7 days of passes ≥ 10°. The values pass through the URL so the page stays shareable.

No JS? Fill the form by hand. The geolocation button needs JavaScript.